N5SNT-2 Weather Reports


Display with metric or nautical units.
time (UTC)temp
F
wind
direction
speed
MPH
gust
MPH
rain 1hr
in
rain 24hr
in
rain mn
in
humidity
%
barometer
mb
20260505140225 70 193 3.0 9.0 0.00 0.00 0.00 97 1010.0
20260505130223 70 178 2.0 12.0 0.00 0.00 0.00 96 1010.0
20260505124724 70 214 5.0 10.0 0.00 0.00 0.00 95 1010.0
20260505124223 70 178 5.0 8.0 0.00 0.00 0.00 95 1010.0
20260505123723 70 149 4.0 9.0 0.00 0.00 0.00 95 1010.0
20260505123223 70 214 7.0 10.0 0.00 0.00 0.00 95 1010.0
20260505122732 70 231 5.0 8.0 0.00 0.00 0.00 95 1010.0
20260505122223 70 221 4.0 7.0 0.00 0.00 0.00 95 1009.0
20260505121723 70 171 6.0 12.0 0.00 0.00 0.00 95 1010.0
20260505121223 70 167 3.0 8.0 0.00 0.00 0.00 95 1010.0
20260505120724 70 183 2.0 9.0 0.00 0.00 0.00 95 1010.0
20260505120223 70 192 3.0 7.0 0.00 0.00 0.00 95 1009.0
20260505115723 70 167 2.0 6.0 0.00 0.00 0.00 95 1009.0
20260505115226 70 178 5.0 10.0 0.00 0.00 0.00 95 1009.0
20260505114726 70 158 6.0 9.0 0.00 0.00 0.00 95 1009.0
20260505114224 70 168 5.0 7.0 0.00 0.00 0.00 95 1009.0
20260505113723 70 147 7.0 7.0 0.00 0.00 0.00 95 1009.0
20260505113223 70 184 3.0 9.0 0.00 0.00 0.00 95 1009.0
20260505112723 70 213 3.0 7.0 0.00 0.00 0.00 95 1009.0
20260505112224 70 173 5.0 7.0 0.00 0.00 0.00 95 1009.0
20260505111723 70 173 3.0 7.0 0.00 0.00 0.00 95 1009.0
20260505111223 70 170 4.0 9.0 0.00 0.00 0.00 95 1009.0
20260505110723 70 158 6.0 9.0 0.00 0.00 0.00 95 1009.0
20260505110223 70 193 3.0 8.0 0.00 0.00 0.00 95 1009.0
20260505101725 70 179 3.0 11.0 0.00 0.00 0.00 95 1009.0
20260505101223 70 201 3.0 8.0 0.00 0.00 0.00 95 1009.0
20260505100724 70 174 5.0 12.0 0.00 0.00 0.00 95 1009.0
20260505100223 70 211 5.0 7.0 0.00 0.00 0.00 95 1009.0
20260505095723 70 188 3.0 9.0 0.00 0.00 0.00 95 1009.0
20260505095225 69 174 3.0 7.0 0.00 0.00 0.00 95 1009.0
20260505094725 69 183 5.0 6.0 0.00 0.00 0.00 95 1009.0
20260505094223 69 227 6.0 9.0 0.00 0.00 0.00 96 1009.0
20260505093724 69 182 2.0 5.0 0.00 0.00 0.00 96 1009.0
20260505093223 69 193 6.0 7.0 0.00 0.00 0.00 96 1009.0
20260505092725 69 144 6.0 6.0 0.00 0.00 0.00 96 1009.0
20260505092224 69 180 3.0 5.0 0.00 0.00 0.00 96 1009.0
20260505091724 69 162 5.0 5.0 0.00 0.00 0.00 96 1010.0
20260505091223 69 161 3.0 7.0 0.00 0.00 0.00 96 1010.0
20260505090723 69 175 4.0 5.0 0.00 0.00 0.00 96 1009.0
20260505090223 69 183 3.0 6.0 0.00 0.00 0.00 96 1009.0
20260505085723 68 193 4.0 6.0 0.00 0.00 0.00 96 1009.0
20260505085223 68 150 7.0 9.0 0.00 0.00 0.00 97 1009.0
20260505084723 68 174 2.0 5.0 0.00 0.00 0.00 97 1009.0
20260505083753 68 178 2.0 4.0 0.00 0.00 0.00 97 1009.0
20260505083223 68 185 2.0 4.0 0.00 0.00 0.00 97 1010.0
20260505082723 68 181 3.0 5.0 0.00 0.00 0.00 97 1010.0
20260505082224 68 145 4.0 5.0 0.00 0.00 0.00 96 1010.0
20260505081723 68 187 2.0 4.0 0.00 0.00 0.00 96 1010.0
20260505081224 68 173 2.0 6.0 0.00 0.00 0.00 96 1010.0
20260505080725 68 193 3.0 5.0 0.00 0.00 0.00 96 1010.0
20260505080225 68 167 3.0 5.0 0.00 0.00 0.00 96 1010.0
20260505075723 68 147 5.0 5.0 0.00 0.00 0.00 96 1010.0
20260505075225 68 144 4.0 6.0 0.00 0.00 0.00 96 1010.0
20260505074724 68 182 3.0 3.0 0.00 0.00 0.00 96 1010.0
20260505074228 68 140 2.0 5.0 0.00 0.00 0.00 96 1010.0
20260505073723 68 188 2.0 6.0 0.00 0.00 0.00 96 1010.0
20260505073223 68 165 3.0 5.0 0.00 0.00 0.00 96 1010.0
20260505072723 68 188 1.0 4.0 0.00 0.00 0.00 95 1010.0
20260505072223 68 179 3.0 5.0 0.00 0.00 0.00 95 1011.0
20260505071723 68 125 3.0 5.0 0.00 0.00 0.00 95 1011.0
20260505071224 68 128 3.0 7.0 0.00 0.00 0.00 95 1011.0
20260505070723 68 186 1.0 5.0 0.00 0.00 0.00 95 1011.0
20260505070224 68 152 2.0 4.0 0.00 0.00 0.00 95 1011.0
20260505065724 68 130 3.0 4.0 0.00 0.00 0.00 95 1011.0
20260505065223 68 156 3.0 4.0 0.00 0.00 0.00 95 1011.0
20260505064724 68 165 3.0 3.0 0.00 0.00 0.00 95 1011.0
20260505064225 68 189 4.0 5.0 0.00 0.00 0.00 95 1011.0
20260505063723 68 120 2.0 5.0 0.00 0.00 0.00 95 1011.0
20260505063223 68 169 4.0 5.0 0.00 0.00 0.00 94 1011.0
20260505062723 69 177 3.0 7.0 0.00 0.00 0.00 94 1011.0
20260505061737 69 207 2.0 6.0 0.00 0.00 0.00 94 1011.0
20260505061223 69 146 4.0 6.0 0.00 0.00 0.00 93 1011.0
20260505060724 69 194 4.0 6.0 0.00 0.00 0.00 93 1011.0
20260505060223 69 151 3.0 8.0 0.00 0.00 0.00 93 1011.0
20260505055724 69 157 6.0 6.0 0.00 0.00 0.00 93 1011.0
20260505055223 69 143 6.0 8.0 0.00 0.00 0.00 92 1011.0
20260505054724 69 161 3.0 8.0 0.00 0.00 0.00 92 1011.0
20260505054223 69 196 4.0 7.0 0.00 0.00 0.00 92 1011.0
20260505053724 69 138 4.0 5.0 0.00 0.00 0.00 92 1011.0
20260505053223 69 174 4.0 8.0 0.00 0.00 0.00 91 1011.0
20260505052723 70 161 6.0 7.0 0.00 0.00 0.00 91 1011.0
20260505052223 70 164 3.0 7.0 0.00 0.00 0.00 91 1011.0
20260505051724 70 126 5.0 8.0 0.00 0.00 0.00 91 1011.0
20260505051223 70 164 6.0 13.0 0.00 0.00 0.00 91 1010.0
20260505050723 70 135 7.0 14.0 0.00 0.00 0.00 91 1010.0
20260505050223 70 117 5.0 8.0 0.00 0.00 0.00 90 1011.0
20260505041723 71 177 5.0 10.0 0.00 0.00 0.00 89 1011.0
20260505041224 71 182 5.0 6.0 0.00 0.00 0.00 89 1011.0
20260505040723 71 161 5.0 7.0 0.00 0.00 0.00 89 1011.0
20260505040223 71 155 3.0 8.0 0.00 0.00 0.00 88 1011.0
20260505035723 71 144 7.0 11.0 0.00 0.00 0.00 88 1011.0
20260505035223 72 128 5.0 8.0 0.00 0.00 0.00 88 1011.0
20260505034723 72 138 4.0 9.0 0.00 0.00 0.00 88 1011.0
20260505034223 72 147 6.0 11.0 0.00 0.00 0.00 87 1011.0
20260505033723 72 152 5.0 8.0 0.00 0.00 0.00 87 1011.0
20260505033223 72 140 4.0 11.0 0.00 0.00 0.00 87 1011.0
20260505032724 72 142 2.0 8.0 0.00 0.00 0.00 87 1011.0
20260505032223 72 138 6.0 6.0 0.00 0.00 0.00 87 1011.0
20260505031724 73 111 2.0 4.0 0.00 0.00 0.00 86 1011.0
20260505031223 73 129 5.0 6.0 0.00 0.00 0.00 86 1011.0
20260505030723 73 148 3.0 7.0 0.00 0.00 0.00 86 1011.0
20260505030227 73 133 5.0 6.0 0.00 0.00 0.00 85 1011.0
20260505025727 73 117 5.0 6.0 0.00 0.00 0.00 85 1012.0
20260505025223 73 88 3.0 7.0 0.00 0.00 0.00 85 1011.0
20260505024726 73 127 2.0 6.0 0.00 0.00 0.00 84 1011.0
20260505024223 74 163 4.0 5.0 0.00 0.00 0.00 84 1011.0
20260505023723 74 130 5.0 5.0 0.00 0.00 0.00 84 1011.0
20260505023223 74 117 3.0 4.0 0.00 0.00 0.00 83 1011.0
20260505022726 74 155 4.0 5.0 0.00 0.00 0.00 83 1011.0
20260505022223 74 124 3.0 6.0 0.00 0.00 0.00 83 1011.0
20260505021727 74 153 4.0 5.0 0.00 0.00 0.00 82 1011.0
20260505021226 75 169 4.0 6.0 0.00 0.00 0.00 82 1010.0
20260505020723 75 173 2.0 5.0 0.00 0.00 0.00 81 1011.0
20260505020225 75 153 4.0 6.0 0.00 0.00 0.00 81 1011.0
20260505015723 75 145 3.0 8.0 0.00 0.00 0.00 80 1011.0
20260505015224 75 118 7.0 7.0 0.00 0.00 0.00 80 1010.0
20260505014723 75 138 3.0 5.0 0.00 0.00 0.00 80 1010.0
20260505014223 76 164 2.0 5.0 0.00 0.00 0.00 79 1010.0
20260505013723 76 146 0.0 5.0 0.00 0.00 0.00 79 1011.0
20260505013223 76 163 3.0 5.0 0.00 0.00 0.00 78 1010.0
20260505012723 76 147 4.0 6.0 0.00 0.00 0.00 78 1010.0
20260505012223 77 168 3.0 9.0 0.00 0.00 0.00 77 1010.0
20260505011723 77 197 6.0 11.0 0.00 0.00 0.00 77 1010.0
20260505011223 77 131 4.0 11.0 0.00 0.00 0.00 77 1010.0
20260505010724 77 166 8.0 11.0 0.00 0.00 0.00 76 1010.0
20260505010227 77 151 8.0 10.0 0.00 0.00 0.00 76 1010.0
20260505005723 77 165 4.0 7.0 0.00 0.00 0.00 75 1010.0
20260505005224 78 122 4.0 10.0 0.00 0.00 0.00 75 1010.0
20260505004724 78 151 7.0 7.0 0.00 0.00 0.00 74 1010.0
20260505004224 78 160 4.0 11.0 0.00 0.00 0.00 74 1010.0
20260505003723 78 176 6.0 10.0 0.00 0.00 0.00 73 1010.0
20260505003224 78 159 4.0 5.0 0.00 0.00 0.00 73 1010.0
20260505002723 78 164 4.0 14.0 0.00 0.00 0.00 73 1010.0
20260505002223 79 167 5.0 7.0 0.00 0.00 0.00 72 1010.0
20260505001723 79 177 7.0 10.0 0.00 0.00 0.00 71 1010.0
20260505001228 79 150 5.0 11.0 0.00 0.00 0.00 70 1010.0
20260505000723 80 158 5.0 10.0 0.00 0.00 0.00 70 1010.0
20260505000226 80 179 6.0 9.0 0.00 0.00 0.00 69 1010.0
20260504235723 80 171 6.0 15.0 0.00 0.00 0.00 69 1011.0
20260504235223 79 192 10.0 11.0 0.00 0.00 0.00 69 1010.0
20260504234723 80 171 3.0 12.0 0.00 0.00 0.00 68 1011.0
20260504234223 80 156 3.0 9.0 0.00 0.00 0.00 68 1011.0
20260504233723 80 174 6.0 8.0 0.00 0.00 0.00 67 1011.0
20260504233223 80 207 6.0 15.0 0.00 0.00 0.00 67 1011.0
20260504232723 80 169 5.0 11.0 0.00 0.00 0.00 67 1011.0
20260504232223 80 156 6.0 11.0 0.00 0.00 0.00 66 1011.0
20260504231724 81 199 6.0 14.0 0.00 0.00 0.00 65 1012.0
20260504231223 81 170 9.0 10.0 0.00 0.00 0.00 63 1011.0
20260504230723 80 186 5.0 9.0 0.00 0.00 0.00 65 1012.0
20260504230224 80 191 6.0 12.0 0.00 0.00 0.00 64 1011.0
20260504225723 81 129 6.0 10.0 0.00 0.00 0.00 63 1012.0
20260504225223 81 233 13.0 13.0 0.00 0.00 0.00 62 1012.0
20260504224723 81 200 6.0 14.0 0.00 0.00 0.00 63 1012.0
20260504224223 80 181 8.0 15.0 0.00 0.00 0.00 63 1012.0
20260504223723 81 215 9.0 10.0 0.00 0.00 0.00 62 1012.0
20260504223223 81 166 5.0 13.0 0.00 0.00 0.00 63 1012.0
20260504222723 80 197 7.0 10.0 0.00 0.00 0.00 63 1012.0
20260504222224 80 165 8.0 13.0 0.00 0.00 0.00 63 1012.0
20260504221723 82 209 7.0 11.0 0.00 0.00 0.00 61 1012.0
20260504221223 80 214 5.0 13.0 0.00 0.00 0.00 63 1012.0
20260504220723 80 176 4.0 12.0 0.00 0.00 0.00 64 1012.0
20260504220223 80 174 7.0 10.0 0.00 0.00 0.00 62 1012.0
20260504215725 80 149 4.0 11.0 0.00 0.00 0.00 64 1012.0
20260504215224 80 160 5.0 11.0 0.00 0.00 0.00 63 1012.0
20260504214724 80 171 9.0 11.0 0.00 0.00 0.00 64 1012.0
20260504214226 80 119 13.0 15.0 0.00 0.00 0.00 63 1012.0
20260504213723 79 178 5.0 12.0 0.00 0.00 0.00 64 1012.0
20260504213224 80 170 5.0 12.0 0.00 0.00 0.00 64 1012.0
20260504212724 80 158 5.0 10.0 0.00 0.00 0.00 62 1012.0
20260504212223 80 208 2.0 9.0 0.00 0.00 0.00 64 1012.0
20260504211724 80 149 6.0 10.0 0.00 0.00 0.00 64 1012.0
20260504211223 80 163 8.0 12.0 0.00 0.00 0.00 63 1013.0
20260504210723 80 190 5.0 9.0 0.00 0.00 0.00 63 1013.0
20260504210223 80 181 5.0 12.0 0.00 0.00 0.00 63 1013.0
20260504205723 80 162 3.0 11.0 0.00 0.00 0.00 63 1013.0
20260504205224 80 136 8.0 12.0 0.00 0.00 0.00 62 1013.0
20260504204723 80 153 11.0 13.0 0.00 0.00 0.00 61 1013.0
20260504204223 80 172 8.0 14.0 0.00 0.00 0.00 62 1013.0
20260504203723 80 192 11.0 14.0 0.00 0.00 0.00 62 1013.0
20260504203223 79 171 6.0 9.0 0.00 0.00 0.00 63 1013.0
20260504202723 80 185 4.0 10.0 0.00 0.00 0.00 62 1013.0
20260504202223 80 167 6.0 12.0 0.00 0.00 0.00 62 1014.0
20260504201723 80 182 6.0 10.0 0.00 0.00 0.00 63 1014.0
20260504201224 79 170 7.0 11.0 0.00 0.00 0.00 64 1014.0
20260504200724 79 169 7.0 11.0 0.00 0.00 0.00 64 1014.0
20260504200225 80 157 10.0 12.0 0.00 0.00 0.00 64 1014.0
20260504195723 80 163 7.0 11.0 0.00 0.00 0.00 64 1014.0
20260504195223 80 190 4.0 10.0 0.00 0.00 0.00 63 1014.0
20260504194724 80 181 5.0 11.0 0.00 0.00 0.00 62 1014.0
20260504194223 79 225 13.0 14.0 0.00 0.00 0.00 63 1014.0
20260504193723 80 185 6.0 12.0 0.00 0.00 0.00 62 1014.0
20260504193223 79 244 7.0 12.0 0.00 0.00 0.00 63 1014.0
20260504192724 80 217 8.0 12.0 0.00 0.00 0.00 62 1015.0
20260504192224 80 184 8.0 12.0 0.00 0.00 0.00 61 1014.0
20260504191723 80 218 12.0 13.0 0.00 0.00 0.00 62 1015.0
20260504191223 79 180 10.0 13.0 0.00 0.00 0.00 63 1015.0
20260504190723 80 139 6.0 12.0 0.00 0.00 0.00 62 1015.0
20260504190224 79 132 7.0 12.0 0.00 0.00 0.00 62 1014.0
20260504185723 80 143 8.0 12.0 0.00 0.00 0.00 62 1015.0
20260504185223 80 180 7.0 12.0 0.00 0.00 0.00 62 1015.0
20260504184724 80 190 8.0 11.0 0.00 0.00 0.00 62 1015.0
20260504184224 79 176 12.0 13.0 0.00 0.00 0.00 64 1015.0
20260504183724 79 222 7.0 9.0 0.00 0.00 0.00 65 1015.0
20260504183223 79 181 8.0 12.0 0.00 0.00 0.00 63 1015.0
20260504182723 78 169 8.0 13.0 0.00 0.00 0.00 65 1015.0
20260504182224 78 120 11.0 13.0 0.00 0.00 0.00 64 1015.0
20260504181723 79 179 9.0 11.0 0.00 0.00 0.00 63 1015.0
20260504181223 78 181 6.0 12.0 0.00 0.00 0.00 65 1015.0
20260504180724 79 187 7.0 11.0 0.00 0.00 0.00 64 1016.0
20260504180223 78 204 5.0 11.0 0.00 0.00 0.00 64 1016.0
20260504175724 78 202 8.0 13.0 0.00 0.00 0.00 66 1015.0
20260504175223 77 181 3.0 12.0 0.00 0.00 0.00 66 1016.0
20260504174724 77 169 10.0 11.0 0.00 0.00 0.00 67 1016.0
20260504174224 77 209 7.0 12.0 0.00 0.00 0.00 66 1016.0
20260504173723 77 182 9.0 15.0 0.00 0.00 0.00 67 1016.0
20260504173225 77 179 7.0 13.0 0.00 0.00 0.00 68 1016.0
20260504172726 76 162 8.0 14.0 0.00 0.00 0.00 69 1016.0
20260504172223 75 168 4.0 10.0 0.00 0.00 0.00 71 1016.0
20260504171723 77 156 9.0 14.0 0.00 0.00 0.00 69 1016.0
20260504171223 77 207 9.0 13.0 0.00 0.00 0.00 69 1016.0
20260504170723 75 200 3.0 12.0 0.00 0.00 0.00 72 1016.0
20260504170224 75 195 4.0 12.0 0.00 0.00 0.00 73 1017.0
20260504160226 71 186 6.0 14.0 0.00 0.00 0.00 78 1017.0
20260504150723 69 186 5.0 9.0 0.00 0.00 0.00 80 1017.0
20260504150224 68 196 5.0 9.0 0.00 0.00 0.00 81 1017.0